SAS215 ENGM-ENCN

Flight info

Callsign SAS215
Flight time 0h 40m
Altitude 28000
Route VIPPA DCT OSVAL
Aircraft E195/M-SDE3GILORVW/S

Departure

Time 2026-04-16 12:44
Airport Oslo-Gardermoen International Airport (ENGM)

Arrival

Time 2026-04-16 13:24
Airport Kristiansand Airport (ENCN)
Time Latitude Longitude Altitude Speed Heading
2026-04-16 11:48 60.19527 11.09652 682 ft 0 kts 196°
2026-04-16 12:32 60.19529 11.09653 684 ft 1 kts 196°
2026-04-16 12:32 60.19545 11.09662 682 ft 3 kts 196°
2026-04-16 12:33 60.19564 11.09673 681 ft 3 kts 196°
2026-04-16 12:33 60.19572 11.09678 697 ft 0 kts 196°
2026-04-16 12:37 60.19570 11.09675 695 ft 1 kts 208°
2026-04-16 12:38 60.19570 11.09659 699 ft 1 kts 271°
2026-04-16 12:38 60.19586 11.09645 679 ft 5 kts 340°
2026-04-16 12:38 60.19638 11.09604 682 ft 9 kts 331°
2026-04-16 12:38 60.19670 11.09479 679 ft 11 kts 287°
2026-04-16 12:39 60.19693 11.09320 682 ft 13 kts 285°
2026-04-16 12:39 60.19719 11.09141 682 ft 14 kts 286°
2026-04-16 12:39 60.19746 11.08951 680 ft 13 kts 284°
2026-04-16 12:39 60.19771 11.08765 676 ft 14 kts 285°
2026-04-16 12:40 60.19842 11.08711 678 ft 12 kts 14°
2026-04-16 12:40 60.19926 11.08759 678 ft 13 kts 15°
2026-04-16 12:40 60.20016 11.08812 679 ft 14 kts 16°
2026-04-16 12:40 60.20114 11.08868 679 ft 15 kts 16°
2026-04-16 12:41 60.20220 11.08929 678 ft 17 kts 15°
2026-04-16 12:41 60.20335 11.08996 678 ft 18 kts 15°
2026-04-16 12:41 60.20459 11.09068 681 ft 19 kts 16°
2026-04-16 12:41 60.20580 11.09139 681 ft 12 kts 14°
2026-04-16 12:42 60.20644 11.09070 680 ft 13 kts 291°
2026-04-16 12:42 60.20671 11.08889 678 ft 15 kts 285°
2026-04-16 12:42 60.20698 11.08698 678 ft 11 kts 285°
2026-04-16 12:42 60.20668 11.08624 678 ft 1 kts 196°
2026-04-16 12:43 60.20667 11.08624 678 ft 0 kts 196°
2026-04-16 12:43 60.20623 11.08599 675 ft 29 kts 196°
2026-04-16 12:43 60.20214 11.08363 675 ft 92 kts 196°
2026-04-16 12:43 60.19407 11.07902 679 ft 146 kts 196°
2026-04-16 12:44 60.18387 11.07268 1160 ft 156 kts 195°
2026-04-16 12:44 60.17346 11.06615 1857 ft 162 kts 199°
2026-04-16 12:44 60.16324 11.05386 2241 ft 179 kts 223°
2026-04-16 12:44 60.15614 11.03240 2692 ft 196 kts 249°
2026-04-16 12:45 60.15194 11.00613 3323 ft 197 kts 246°
2026-04-16 12:45 60.14653 10.98054 3866 ft 202 kts 245°
2026-04-16 12:45 60.14142 10.95340 4310 ft 218 kts 248°
2026-04-16 12:45 60.13508 10.92413 4655 ft 236 kts 240°
2026-04-16 12:46 60.12780 10.89365 5107 ft 249 kts 242°
2026-04-16 12:46 60.12031 10.86149 5580 ft 260 kts 242°
2026-04-16 12:46 60.11268 10.82817 6202 ft 266 kts 242°
2026-04-16 12:46 60.10482 10.79444 6822 ft 267 kts 241°
2026-04-16 12:47 60.09695 10.76065 7449 ft 269 kts 241°
2026-04-16 12:47 60.08900 10.72651 8008 ft 271 kts 241°
2026-04-16 12:47 60.08097 10.69221 8610 ft 273 kts 241°
2026-04-16 12:47 60.07297 10.65769 9268 ft 274 kts 241°
2026-04-16 12:48 60.06486 10.62308 9883 ft 276 kts 241°
2026-04-16 12:48 60.05660 10.58812 10386 ft 284 kts 239°
2026-04-16 12:48 60.04414 10.55739 10690 ft 289 kts 214°
2026-04-16 12:48 60.02606 10.53963 11121 ft 293 kts 194°
2026-04-16 12:49 60.00587 10.53150 11627 ft 299 kts 189°
2026-04-16 12:49 59.98529 10.52446 12210 ft 302 kts 189°
2026-04-16 12:49 59.96446 10.51713 12767 ft 306 kts 189°
2026-04-16 12:49 59.94338 10.50978 13352 ft 310 kts 189°
2026-04-16 12:50 59.92208 10.50246 13927 ft 313 kts 189°
2026-04-16 12:50 59.90048 10.49515 14465 ft 317 kts 189°
2026-04-16 12:50 59.87890 10.48788 14978 ft 320 kts 189°
2026-04-16 12:50 59.85685 10.48051 15530 ft 323 kts 189°
2026-04-16 12:51 59.83459 10.47317 16082 ft 325 kts 189°
2026-04-16 12:51 59.81207 10.46590 16579 ft 329 kts 189°
2026-04-16 12:51 59.78932 10.45868 17063 ft 334 kts 189°
2026-04-16 12:51 59.76628 10.45151 17592 ft 338 kts 190°
2026-04-16 12:52 59.74298 10.44425 18176 ft 340 kts 190°
2026-04-16 12:52 59.71942 10.43711 18685 ft 344 kts 190°
2026-04-16 12:52 59.69565 10.43001 19186 ft 346 kts 190°
2026-04-16 12:52 59.67172 10.42296 19696 ft 349 kts 190°
2026-04-16 12:53 59.64764 10.41601 20207 ft 351 kts 189°
2026-04-16 12:53 59.62338 10.40908 20715 ft 353 kts 189°
2026-04-16 12:53 59.59893 10.40227 21212 ft 356 kts 189°
2026-04-16 12:53 59.57436 10.39529 21695 ft 358 kts 191°
2026-04-16 12:54 59.54977 10.38670 22164 ft 360 kts 191°
2026-04-16 12:54 59.52499 10.37832 22644 ft 362 kts 191°
2026-04-16 12:54 59.50007 10.36979 23113 ft 365 kts 191°
2026-04-16 12:54 59.47497 10.36131 23576 ft 367 kts 191°
2026-04-16 12:55 59.44965 10.35275 23956 ft 371 kts 191°
2026-04-16 12:55 59.42415 10.34413 24357 ft 372 kts 191°
2026-04-16 12:55 59.39857 10.33553 24753 ft 374 kts 191°
2026-04-16 12:55 59.37286 10.32687 25155 ft 376 kts 191°
2026-04-16 12:56 59.34704 10.31822 25538 ft 378 kts 191°
2026-04-16 12:56 59.32109 10.30954 25924 ft 379 kts 191°
2026-04-16 12:56 59.29510 10.30086 26282 ft 381 kts 191°
2026-04-16 12:56 59.26892 10.29214 26632 ft 382 kts 191°
2026-04-16 12:57 59.24263 10.28340 26980 ft 384 kts 191°
2026-04-16 12:57 59.21626 10.27464 27315 ft 385 kts 191°
2026-04-16 12:57 59.18976 10.26586 27605 ft 388 kts 191°
2026-04-16 12:57 59.16290 10.25828 27872 ft 391 kts 186°
2026-04-16 12:58 59.13569 10.25427 28189 ft 393 kts 185°
2026-04-16 12:58 59.10883 10.25076 28250 ft 388 kts 185°
2026-04-16 12:58 59.05615 10.24367 28232 ft 372 kts 185°
2026-04-16 12:59 59.00478 10.23677 28226 ft 370 kts 185°
2026-04-16 13:00 58.93440 10.18765 28244 ft 362 kts 223°
2026-04-16 13:00 58.90279 10.11262 28260 ft 359 kts 233°
2026-04-16 13:01 58.87238 10.03608 28272 ft 359 kts 233°
2026-04-16 13:01 58.84194 9.95951 28221 ft 359 kts 233°
2026-04-16 13:02 58.81147 9.88321 28208 ft 359 kts 233°
2026-04-16 13:02 58.78097 9.80712 28209 ft 359 kts 232°
2026-04-16 13:03 58.75040 9.73111 28212 ft 359 kts 232°
2026-04-16 13:03 58.71979 9.65525 28212 ft 359 kts 232°
2026-04-16 13:04 58.68912 9.57948 28205 ft 359 kts 232°
2026-04-16 13:04 58.67366 9.54103 27671 ft 364 kts 233°
2026-04-16 13:04 58.65838 9.50308 27470 ft 357 kts 232°
2026-04-16 13:04 58.64310 9.46509 26921 ft 358 kts 233°
2026-04-16 13:05 58.62789 9.42750 26464 ft 355 kts 232°
2026-04-16 13:05 58.61284 9.39032 25971 ft 350 kts 232°
2026-04-16 13:05 58.59798 9.35384 25514 ft 345 kts 232°
2026-04-16 13:05 58.58331 9.31791 25058 ft 340 kts 232°
2026-04-16 13:06 58.56881 9.28251 24599 ft 336 kts 232°
2026-04-16 13:06 58.55447 9.24759 24164 ft 331 kts 231°
2026-04-16 13:06 58.54027 9.21312 23698 ft 328 kts 231°
2026-04-16 13:06 58.52625 9.17912 23275 ft 322 kts 231°
2026-04-16 13:07 58.51245 9.14580 22848 ft 318 kts 231°
2026-04-16 13:07 58.49875 9.11287 22427 ft 315 kts 231°
2026-04-16 13:07 58.48512 9.08013 22014 ft 314 kts 231°
2026-04-16 13:07 58.47126 9.04788 21599 ft 314 kts 229°
2026-04-16 13:08 58.45581 9.01857 21193 ft 313 kts 221°
2026-04-16 13:08 58.43932 8.99138 20764 ft 313 kts 222°
2026-04-16 13:08 58.42297 8.96396 20348 ft 312 kts 222°
2026-04-16 13:08 58.40686 8.93728 19940 ft 311 kts 222°
2026-04-16 13:09 58.39057 8.91031 19540 ft 309 kts 221°
2026-04-16 13:09 58.37435 8.88350 19123 ft 308 kts 222°
2026-04-16 13:09 58.35814 8.85673 18677 ft 308 kts 222°
2026-04-16 13:09 58.34204 8.83017 18281 ft 304 kts 222°
2026-04-16 13:10 58.32616 8.80396 17898 ft 300 kts 221°
2026-04-16 13:10 58.31047 8.77809 17493 ft 298 kts 221°
2026-04-16 13:10 58.29484 8.75233 17097 ft 297 kts 221°
2026-04-16 13:10 58.27925 8.72669 16699 ft 296 kts 221°
2026-04-16 13:11 58.26372 8.70116 16318 ft 295 kts 221°
2026-04-16 13:11 58.24819 8.67565 15929 ft 295 kts 221°
2026-04-16 13:11 58.23277 8.65034 15534 ft 292 kts 220°
2026-04-16 13:11 58.21748 8.62530 15142 ft 288 kts 220°
2026-04-16 13:12 58.20241 8.60063 14755 ft 285 kts 220°
2026-04-16 13:12 58.18742 8.57615 14412 ft 283 kts 220°
2026-04-16 13:12 58.17249 8.55180 14000 ft 284 kts 220°
2026-04-16 13:12 58.15761 8.52751 13594 ft 281 kts 220°
2026-04-16 13:13 58.14292 8.50355 13261 ft 277 kts 220°
2026-04-16 13:13 58.12835 8.47982 12887 ft 276 kts 220°
2026-04-16 13:13 58.11384 8.45623 12539 ft 275 kts 220°
2026-04-16 13:13 58.09936 8.43269 12158 ft 274 kts 220°
2026-04-16 13:14 58.08494 8.40928 11801 ft 273 kts 220°
2026-04-16 13:14 58.07055 8.38595 11410 ft 273 kts 219°
2026-04-16 13:14 58.05598 8.36235 10868 ft 277 kts 219°
2026-04-16 13:14 58.04146 8.33886 10528 ft 273 kts 219°
2026-04-16 13:15 58.02712 8.31543 10142 ft 272 kts 220°
2026-04-16 13:15 58.01282 8.29214 9757 ft 270 kts 219°
2026-04-16 13:15 57.99806 8.27102 9413 ft 264 kts 213°
2026-04-16 13:15 57.98319 8.25195 9058 ft 253 kts 214°
2026-04-16 13:16 57.96906 8.23337 8735 ft 243 kts 213°
2026-04-16 13:16 57.95560 8.21573 8410 ft 235 kts 213°
2026-04-16 13:16 57.94299 8.19693 8089 ft 231 kts 227°
2026-04-16 13:16 57.93590 8.16989 7799 ft 235 kts 253°
2026-04-16 13:17 57.93513 8.13860 7511 ft 243 kts 277°
2026-04-16 13:17 57.94200 8.10915 7177 ft 251 kts 301°
2026-04-16 13:17 57.95229 8.08240 6837 ft 253 kts 301°
2026-04-16 13:17 57.96214 8.05489 6457 ft 254 kts 300°
2026-04-16 13:18 57.96875 8.03674 6251 ft 253 kts 301°
2026-04-16 13:18 57.97855 8.00979 5913 ft 245 kts 301°
2026-04-16 13:18 57.98815 7.98352 5552 ft 242 kts 301°
2026-04-16 13:18 57.99767 7.95760 5268 ft 241 kts 300°
2026-04-16 13:19 58.01028 7.92313 4811 ft 236 kts 301°
2026-04-16 13:19 58.01657 7.90613 4612 ft 232 kts 300°
2026-04-16 13:19 58.02701 7.88339 4297 ft 231 kts 322°
2026-04-16 13:19 58.04240 7.87574 3787 ft 235 kts 10°
2026-04-16 13:20 58.05654 7.88910 3433 ft 224 kts 43°
2026-04-16 13:20 58.06840 7.90634 3399 ft 207 kts 44°
2026-04-16 13:20 58.07996 7.92203 3250 ft 205 kts 38°
2026-04-16 13:20 58.09187 7.93641 3000 ft 201 kts 40°
2026-04-16 13:21 58.10314 7.95176 2712 ft 199 kts 41°
2026-04-16 13:21 58.11445 7.96677 2424 ft 196 kts 40°
2026-04-16 13:21 58.12526 7.98077 2100 ft 184 kts 41°
2026-04-16 13:21 58.13542 7.99433 1816 ft 176 kts 41°
2026-04-16 13:22 58.14517 8.00722 1540 ft 165 kts 40°
2026-04-16 13:22 58.15426 8.01905 1269 ft 154 kts 38°
2026-04-16 13:22 58.16278 8.03041 1020 ft 145 kts 41°
2026-04-16 13:22 58.17078 8.04114 801 ft 137 kts 37°
2026-04-16 13:23 58.17846 8.05120 569 ft 132 kts 37°
2026-04-16 13:23 58.18574 8.06088 406 ft 127 kts 39°
2026-04-16 13:23 58.19288 8.07044 182 ft 125 kts 37°
2026-04-16 13:23 58.19982 8.07949 59 ft 113 kts 39°
2026-04-16 13:24 58.20478 8.08612 51 ft 55 kts 36°
2026-04-16 13:24 58.20661 8.08865 54 ft 17 kts 44°
2026-04-16 13:24 58.20709 8.08934 55 ft 2 kts 346°
2026-04-16 13:24 58.20710 8.08918 58 ft 1 kts 274°
2026-04-16 13:25 58.20693 8.08893 58 ft 5 kts 210°
2026-04-16 13:25 58.20649 8.08839 58 ft 10 kts 217°
2026-04-16 13:25 58.20579 8.08745 50 ft 15 kts 214°
2026-04-16 13:25 58.20483 8.08616 52 ft 17 kts 215°
2026-04-16 13:26 58.20409 8.08487 55 ft 13 kts 253°
2026-04-16 13:26 58.20440 8.08348 57 ft 11 kts 304°
2026-04-16 13:26 58.20476 8.08239 57 ft 9 kts 294°
2026-04-16 13:26 58.20461 8.08125 51 ft 10 kts 232°
2026-04-16 13:27 58.20413 8.08013 57 ft 12 kts 232°
2026-04-16 13:27 58.20360 8.07883 57 ft 10 kts 230°
2026-04-16 13:27 58.20315 8.07773 57 ft 11 kts 231°
2026-04-16 13:27 58.20293 8.07695 56 ft 5 kts 274°
2026-04-16 13:28 58.20308 8.07646 54 ft 3 kts 303°
2026-04-16 13:28 58.20313 8.07630 54 ft 0 kts 301°